This demonstration page uses our WeatherBlox Daily Observations layout. Learn more.

Left ArrowRight Arrow

36.17497, -115.13722

Hourly Observations for February 1, 2020

Temp ( °F °C ) Dew Point ( °F °C ) Humidity (%) Winds ( mph kmh ) Pressure ( in mb ) Visibility ( mi km ) Precip ( " mm )
12:53 am 00:53 Clear 46 7.8 28 -2.2 50 50 NW 8 13 30.42 1030 10 16.0934 0 0
1:53 am 01:53 Clear 47 8.3 27 -2.8 46 46 WNW 5 7 30.42 1030 10 16.0934 0 0
2:53 am 02:53 Clear 47 8.3 27 -2.8 46 46 Calm 30.42 1030 10 16.0934 0 0
3:53 am 03:53 Clear 47 8.3 26 -3.3 44 44 NE 7 11 30.42 1030 10 16.0934 0 0
4:53 am 04:53 Clear 44 6.7 27 -2.8 51 51 Calm 30.43 1031 10 16.0934 0 0
5:53 am 05:53 Clear 44 6.7 27 -2.8 51 51 NW 5 7 30.44 1031 10 16.0934 0 0
6:53 am 06:53 Sunny 43 6.1 27 -2.8 53 53 Calm 30.46 1032 10 16.0934 0 0
7:53 am 07:53 Sunny 51 10.6 26 -3.3 38 38 N 7 11 30.44 1031 10 16.0934 0 0
8:53 am 08:53 Sunny 52 11.1 28 -2.2 40 40 Calm 30.46 1032 10 16.0934 0 0
9:53 am 09:53 Sunny 58 14.4 27 -2.8 31 31 W 3 6 30.46 1031 10 16.0934 0 0
10:53 am 10:53 Sunny 63 17.2 27 -2.8 26 26 VRB 6 9 30.43 1031 10 16.0934 0 0
11:53 am 11:53 Sunny 64 17.8 28 -2.2 26 26 SE 6 9 30.4 1029 10 16.0934 0 0
12:53 pm 12:53 Sunny 65 18.3 28 -2.2 25 25 SE 5 7 30.35 1028 10 16.0934 0 0
1:53 pm 13:53 Sunny 68 20 28 -2.2 22 22 ESE 3 6 30.32 1027 10 16.0934 0 0
2:53 pm 14:53 Sunny 69 20.6 28 -2.2 22 22 E 5 7 30.29 1026 10 16.0934 0 0
3:53 pm 15:53 Sunny 69 20.6 29 -1.7 22 22 ESE 3 6 30.27 1025 10 16.0934 0 0
4:53 pm 16:53 Sunny 66 18.9 29 -1.7 25 25 E 3 6 30.27 1025 10 16.0934 0 0
6:53 pm 18:53 Clear 60 15.6 30 -1.1 32 32 W 5 7 30.27 1025 10 16.0934 0 0
7:53 pm 19:53 Clear 55 12.8 30 -1.1 38 38 WNW 6 9 30.26 1025 10 16.0934 0 0
8:53 pm 20:53 Clear 53 11.7 30 -1.1 41 41 WNW 5 7 30.25 1024 10 16.0934 0 0
9:53 pm 21:53 Clear 51 10.6 30 -1.1 44 44 W 5 7 30.23 1024 10 16.0934 0 0
10:53 pm 22:53 Clear 49 9.4 30 -1.1 48 48 NNW 7 11 30.22 1023 10 16.0934 0 0
11:53 pm 23:53 Clear 49 9.4 29 -1.7 46 46 WNW 6 9 30.19 1023 10 16.0934 0 0

Powered by AerisWeather